COSMOS 2464 (736) (37139 NORAD) Tracking and Keplerian Element Data

This shows tracking and keplerian element data for the satellite.

Feedback or suggestion? Click here.




ElementValue
Catalog37139
NameCOSMOS 2464 (736)
Epoch Orbit6454
Epoch Day352.46581675
Epoch Year2018
RAAN284.9047
Inclination64.409
Eccentricity0.0024694
Argument of Perigee7.6313
Mean Anonmoly264.3081
Mean Motion2.13102741
Decay Rate-2.4E-07
L11 37139U 10041C 18352.46581675 -.00000024 00000-0 00000+0 0 9996
L22 37139 64.4090 284.9047 0024694 7.6313 264.3081 2.13102741 64541

Live tracking and technical data element details for COSMOS 2464 (736) (NORAD 37139). COSMOS 2464 (736) can be tracked NOW for your location showing map with azimuth and elevation plus other details from your city location.

Track the satellite on the map from your city or location and see movement details for azimuth, elevation, latitude, longitude, range, height, and movement on the map or in text.







IsCatalogInMostPopularTable: catalog: 37139, numindb: 51
Update: records affected: 1



GetName: 37139 COSMOS 2464 (736)

Hit Count: updated at: Wed, 19 Dec 2018 15:30:54 GMT